Klawock, AK

3:42 PM AKDT on May 27, 2017 (GMT -0800)
Klawock

Weather History for PAKW - February, 2014

Change the Weather History Date:

Tuesday, February 11, 2014

  Actual Average Record
Temperature  
Mean Temperature 26 °F -  
Max Temperature 28 °F 39 °F 55 °F (2016)
Min Temperature 24 °F 29 °F 21 °F (2001)
Degree Days  
Heating Degree Days 39    
Moisture  
Dew Point 23 °F    
Average Humidity 87    
Maximum Humidity 93    
Minimum Humidity 78    
Precipitation  
Precipitation 0.00 in - - ()
Sea Level Pressure  
Sea Level Pressure 29.38 in    
Wind  
Wind Speed 12 mph (NE)    
Max Wind Speed 22 mph    
Max Gust Speed 33 mph    
Visibility 4 miles    
Events Fog , Rain , Snow    
Averages and records for this station are not official NWS values.
T = Trace of Precipitation, MM = Missing Value Source: NWS Daily Summary

Daily Weather History Graph

Daily Weather History Graph

Search for Another Location

Airport or City:

Trip Planner

Search our weather history database for the weather conditions in past years. The results will help you decide how hot, cold, wet, or windy it might be!

Date:

Astronomy

Feb. 11, 2014 Rise Set
Actual Time 7:24 AM AKST 4:49 PM AKST
Civil Twilight 6:45 AM AKST 5:28 PM AKST
Nautical Twilight 6:02 AM AKST 6:11 PM AKST
Astronomical Twilight 5:20 AM AKST 6:54 PM AKST
Moon 2:02 PM AKST (2/11) 5:21 AM AKST (2/11)
Length of Visible Light 10h 42m
Length of Day
9h 24m
Waxing Gibbous, 91% of the Moon is Illuminated
Feb 11
Waxing Gibbous
Feb 14
Full
Feb 22
Last Quarter
Feb 28
New
Mar 8
First Quarter

Hourly Weather History & Observations

Time (AKST) Temp. Windchill Dew Point Humidity Pressure Visibility Wind Dir Wind Speed Gust Speed Precip Events Conditions
12:53 AM 25.0 °F 14.2 °F 19.0 °F 78% 29.65 in 10.0 mi NE 11.5 mph - N/A   Overcast
1:53 AM 25.0 °F 18.1 °F 19.9 °F 81% 29.68 in 10.0 mi NE 5.8 mph - N/A   Overcast
2:13 AM 24.1 °F 18.2 °F 19.9 °F 84% 29.68 in 6.0 mi NE 4.6 mph - N/A   Overcast
2:45 AM 24.1 °F 16.0 °F 21.9 °F 91% 29.68 in 4.0 mi NE 6.9 mph - 0.00 in Rain Light Freezing Rain
2:48 AM 24.8 °F 16.1 °F 21.2 °F 86% 29.68 in 5.0 mi NNE 8.1 mph - 0.00 in   Overcast
3:07 AM 24.1 °F 16.0 °F 21.9 °F 91% 29.68 in 6.0 mi NNE 6.9 mph - 0.00 in   Overcast
3:53 AM 24.1 °F 14.4 °F 21.0 °F 88% 29.68 in 10.0 mi NNE 9.2 mph - 0.00 in   Overcast
4:53 AM 24.1 °F 16.0 °F 21.0 °F 88% 29.68 in 10.0 mi NE 6.9 mph - N/A   Overcast
5:53 AM 25.0 °F 16.3 °F 21.0 °F 85% 29.68 in 10.0 mi NE 8.1 mph - N/A   Overcast
6:53 AM 25.0 °F 15.5 °F 19.9 °F 81% 29.67 in 10.0 mi NE 9.2 mph - N/A   Overcast
7:53 AM 24.1 °F 15.2 °F 19.9 °F 84% 29.66 in 10.0 mi NNE 8.1 mph - N/A   Mostly Cloudy
8:07 AM 24.1 °F 15.2 °F 21.0 °F 88% 29.65 in 10.0 mi NE 8.1 mph - N/A   Scattered Clouds
8:53 AM 25.0 °F 15.5 °F 21.0 °F 85% 29.64 in 10.0 mi NE 9.2 mph - N/A   Clear
9:53 AM 26.1 °F 19.4 °F 21.9 °F 84% 29.62 in 10.0 mi Variable 5.8 mph - N/A   Overcast
10:16 AM 27.0 °F 16.7 °F 23.0 °F 85% 29.60 in 2.0 mi NE 11.5 mph 18.4 mph 0.00 in Snow Light Snow
10:20 AM 27.0 °F 17.3 °F 23.0 °F 85% 29.59 in 1.8 mi NNE 10.4 mph - 0.00 in Snow Light Snow
10:44 AM 27.0 °F 14.3 °F 24.1 °F 89% 29.56 in 1.2 mi NNE 17.3 mph 23.0 mph 0.00 in Snow Light Snow
10:53 AM 27.0 °F 15.2 °F 24.1 °F 89% 29.56 in 2.0 mi NNE 15.0 mph - 0.00 in Snow Light Snow
11:27 AM 27.0 °F 14.3 °F 24.1 °F 89% 29.51 in 1.8 mi NNE 17.3 mph 26.5 mph 0.00 in Snow Light Snow
11:38 AM 27.0 °F 14.3 °F 24.1 °F 89% 29.50 in 1.2 mi NE 17.3 mph 25.3 mph 0.00 in Snow Light Snow
11:53 AM 27.0 °F 13.2 °F 24.1 °F 89% 29.48 in 1.0 mi NNE 20.7 mph 29.9 mph 0.00 in Snow Light Snow
12:26 PM 28.0 °F 14.3 °F 24.1 °F 85% 29.43 in 1.8 mi NNE 21.9 mph 33.4 mph 0.00 in Snow Light Snow
12:48 PM 28.4 °F 15.8 °F 24.8 °F 86% 29.40 in 2.5 mi NNE 18.4 mph 25.3 mph 0.00 in Snow Light Snow
12:53 PM 28.0 °F 14.9 °F 24.1 °F 85% 29.40 in 6.0 mi NE 19.6 mph 28.8 mph 0.00 in Snow Light Snow
1:21 PM 28.0 °F 15.7 °F 23.0 °F 81% 29.36 in 1.8 mi NE 17.3 mph 27.6 mph 0.00 in Snow Light Snow
1:39 PM 28.0 °F 15.3 °F 24.1 °F 85% 29.34 in 0.5 mi NNE 18.4 mph 31.1 mph 0.00 in Fog , Snow Snow
1:53 PM 28.0 °F 14.6 °F 24.1 °F 85% 29.32 in 0.5 mi NNE 20.7 mph 31.1 mph 0.00 in Fog , Snow Snow
2:00 PM 28.0 °F 14.6 °F 24.1 °F 85% 29.31 in 0.5 mi NNE 20.7 mph 32.2 mph 0.00 in Fog , Snow Snow
2:42 PM 28.0 °F 15.3 °F 25.0 °F 88% 29.27 in 0.2 mi NNE 18.4 mph 28.8 mph 0.00 in Fog , Snow Snow
2:53 PM 28.0 °F 15.3 °F 25.0 °F 88% 29.27 in 0.2 mi NNE 18.4 mph 32.2 mph 0.00 in Fog , Snow Snow
3:04 PM 28.0 °F 14.9 °F 25.0 °F 88% 29.26 in 0.5 mi NNE 19.6 mph 26.5 mph 0.00 in Fog , Snow Light Snow
3:40 PM 28.0 °F 17.0 °F 25.0 °F 88% 29.24 in 0.2 mi NE 13.8 mph - 0.00 in Fog , Snow Snow
3:53 PM 28.0 °F 17.0 °F 25.0 °F 88% 29.24 in 0.5 mi NNE 13.8 mph - 0.00 in Fog , Snow Snow
4:04 PM 28.0 °F 17.5 °F 25.0 °F 88% 29.23 in 0.8 mi NNE 12.7 mph - 0.00 in Snow Light Snow
4:17 PM 28.0 °F 16.5 °F 26.1 °F 92% 29.22 in 0.2 mi NNE 15.0 mph 20.7 mph 0.00 in Fog , Snow Snow
4:33 PM 27.0 °F 14.3 °F 25.0 °F 92% 29.21 in 0.5 mi NNE 17.3 mph 21.9 mph 0.00 in Fog , Snow Snow
4:51 PM 26.6 °F 14.3 °F 24.8 °F 93% 29.20 in 0.8 mi NNE 16.1 mph 21.9 mph 0.00 in Snow Light Snow
4:53 PM 27.0 °F 15.2 °F 25.0 °F 92% 29.20 in 0.8 mi NNE 15.0 mph - 0.00 in Snow Light Snow
5:21 PM 27.0 °F 15.6 °F 25.0 °F 92% 29.19 in 0.5 mi NNE 13.8 mph - 0.00 in Fog , Snow Snow
5:50 PM 26.6 °F 14.3 °F 24.8 °F 93% 29.18 in 1.2 mi NNE 16.1 mph 21.9 mph 0.00 in Snow Light Snow
5:53 PM 27.0 °F 15.6 °F 24.1 °F 89% 29.18 in 1.2 mi NE 13.8 mph 21.9 mph 0.00 in Snow Light Snow
6:29 PM 27.0 °F 15.6 °F 24.1 °F 89% 29.17 in 1.5 mi NNE 13.8 mph 24.2 mph 0.00 in Snow Light Snow
6:38 PM 27.0 °F 15.2 °F 24.1 °F 89% 29.17 in 1.0 mi NNE 15.0 mph 21.9 mph 0.00 in Snow Light Snow
7:20 PM 26.1 °F 15.0 °F 24.1 °F 92% 29.17 in 1.5 mi NNE 12.7 mph - 0.00 in Snow Light Snow
7:29 PM 26.1 °F 16.2 °F 23.0 °F 88% 29.17 in 3.0 mi NE 10.4 mph - 0.00 in Snow Light Snow
7:44 PM 26.1 °F 16.2 °F 23.0 °F 88% 29.17 in 2.0 mi NE 10.4 mph - 0.00 in Snow Light Snow
7:50 PM 26.6 °F 16.8 °F 23.0 °F 86% 29.16 in 1.5 mi NE 10.4 mph - 0.00 in Snow Light Snow
7:51 PM 26.1 °F 16.2 °F 23.0 °F 88% 29.17 in 1.5 mi NE 10.4 mph - 0.00 in Snow Light Snow
7:58 PM 26.1 °F 15.6 °F 23.0 °F 88% 29.17 in 1.0 mi NNE 11.5 mph - 0.00 in Snow Light Snow
8:18 PM 25.0 °F 13.1 °F 21.9 °F 88% 29.16 in 1.8 mi ENE 13.8 mph 21.9 mph 0.00 in Snow Light Snow
8:29 PM 25.0 °F 13.1 °F 23.0 °F 92% 29.16 in 2.0 mi NNE 13.8 mph 19.6 mph 0.00 in Snow Light Snow
8:49 PM 24.8 °F 11.5 °F 23.0 °F 93% 29.16 in 4.0 mi NNE 17.3 mph - 0.00 in Snow Light Snow
9:53 PM 25.0 °F 13.6 °F 21.0 °F 85% 29.18 in 10.0 mi NE 12.7 mph - 0.00 in   Overcast
10:24 PM 24.1 °F 13.7 °F 21.0 °F 88% 29.20 in 2.5 mi NE 10.4 mph - 0.00 in Snow Light Snow
10:38 PM 24.1 °F 14.4 °F 19.9 °F 84% 29.20 in 3.0 mi NE 9.2 mph - 0.00 in Snow Light Snow
10:53 PM 24.1 °F 13.7 °F 19.9 °F 84% 29.21 in 9.0 mi NE 10.4 mph - 0.00 in   Mostly Cloudy
11:53 PM 24.1 °F 15.2 °F 19.9 °F 84% 29.24 in 10.0 mi NE 8.1 mph - N/A   Overcast